Regional Weather Roundup
Issued by NWS Glasgow, MT

Home | Current Version | Previous Version | Text Only | Print | Product List | Glossary On
Versions: 1 2 3 4 5 6 7 8 9 10 11 12 13 14 15 16 17 18 19 20 21 22 23 24 25 26 27 28 29 30 31 32 33 34 35 36 37 38 39 40 41 42 43 44 45 46 47 48 49 50
000
ASUS45 KGGW 240315
RWRGGW
HOURLY REGIONAL WEATHER ROUNDUP FOR NORTHEAST MONTANA
NATIONAL WEATHER SERVICE GLASGOW MONTANA
800 PM MST THU FEB 23 2017

NOTE: "FAIR" INDICATES FEW OR NO CLOUDS BELOW 12,000 FEET WITH NO
SIGNIFICANT WEATHER AND/OR OBSTRUCTIONS TO VISISBILITY.

NORTHEAST MONTANA


CITY           SKY/WX    TMP DP  RH WIND       PRES   REMARKS
GLASGOW        CLOUDY    26  19  74 E9        30.11S
PLENTYWOOD       N/A     25  18  74 S3          N/A
WOLF POINT     CLOUDY    27  19  72 E7        30.14S
JORDAN           N/A     28  24  85 E6        30.07R
WINNETT          N/A     29  28  96 E3          N/A
SIDNEY         CLOUDY    25  18  74 E6        30.14R
GLENDIVE       FLURRIES  26  24  92 NE7       30.10R
MALTA            N/A     29  27  92 E6          N/A
SCOBEY           N/A     24  12  60 CALM      30.09S

FORT PECK REPORTS


CITY           SKY/WX    TMP DP  RH WIND       PRES   REMARKS
FORT PECK        N/A     26  24  92 E9          N/A
THE PINES        N/A     25  23  92 CALM        N/A

SOUTHEAST MONTANA


CITY           SKY/WX    TMP DP  RH WIND       PRES   REMARKS
BILLINGS       FLURRIES  26  23  88 NE12      29.98S
MILES CITY     CLOUDY    29  24  82 NE8       30.06R
BAKER          CLOUDY    25  22  88 NE10      30.05S
LIVINGSTON     LGT SNOW  21  18  88 E16       29.90F FOG

CENTRAL MONTANA


CITY           SKY/WX    TMP DP  RH WIND       PRES   REMARKS
HAVRE          LGT SNOW  26  24  92 E12       30.05F FOG
LEWISTOWN      CLOUDY    19  16  88 E7        29.97F
GREAT FALLS    FLURRIES  24  21  88 N7        29.98S
CUT BANK       CLOUDY    23  20  88 SE15      29.96F
HELENA         CLOUDY    27  22  81 W8        29.93F
BUTTE          LGT SNOW  23  18  81 SW6       29.83S
BOZEMAN        CLOUDY    27  12  53 VRB3      29.87F

WESTERN MONTANA


CITY           SKY/WX    TMP DP  RH WIND       PRES   REMARKS
MISSOULA       CLOUDY    32  22  66 NW6       29.96S
KALISPELL      NOT AVBL

NORTH DAKOTA


CITY           SKY/WX    TMP DP  RH WIND       PRES   REMARKS
WILLISTON      CLEAR     14   9  80 N3        30.14R
DICKINSON      CLOUDY    18  12  77 N10       30.05S
MINOT          CLEAR     21  15  78 CALM      30.13R
BISMARCK       CLOUDY    22  15  75 N8        30.11S

SOUTHERN SASKATCHEWAN


CITY           SKY/WX    TMP DP  RH WIND       PRES   REMARKS
REGINA         CLOUDY    25  19  80 W5        30.12S
ESTEVAN        MOCLDY    25  18  74 SW8       30.12S
SWIFT CURRENT  CLOUDY    23  18  80 S8        30.07F




USA.gov is the U.S. government's official web portal to all federal, state and local government web resources and services.